{"data":{"norad_id":63327,"intl_designator":"2025-057W","name":"STARLINK-33625","alt_names":[],"object_type":"PAYLOAD","status":"ACTIVE","operator":null,"country":"US","launch_date":"2025-03-18","launch_site_code":"AFETR","launch_vehicle":null,"mission":null,"orbit_class":"UNKNOWN","rcs_meters":null,"size_class":null,"mass_kg":null,"dimensions":null,"purposes":["comms"],"wikipedia_slug":null,"has_3d_model":false,"image_url":null,"decayed_at":null,"tle_current":{"epoch":"2026-09-20T08:00:45.883296Z","epoch_age_seconds":173250,"freshness":"STALE","line1":"1 63327U 25057W   26263.33386439  .00010910  00000+0  40528-3 0  9990","line2":"2 63327  43.0009   3.9936 0001386 259.5981 100.4715 15.27589067 85636","mean_motion":15.27589067,"eccentricity":0.0001386,"inclination_deg":43.0009,"raan_deg":3.9936,"arg_perigee_deg":259.5981,"mean_anomaly_deg":100.4715,"bstar":0.00040528,"rev_number":8563,"period_min":94.266189193667,"perigee_km":482.07098968415,"apogee_km":483.97290294407,"semimajor_km":6861.1589463141,"source":"CELESTRAK","updated_at":"2026-09-21T09:00:34.971158Z"}}}